Weather observations for the past three days for
Springfield - Abraham Lincoln Capital Airport
Metric (Imperial)
Date Time (cdt) Wind (kph) Vis. (km) Weather Sky Cond. Temperature (ºC) Relative Humidity Wind Chill (°C) Heat Index (°C) Pressure Precipitation (cm)
Air Dwpt 6 hour altimeter (cm) sea level (mb) 1 hr 3 hr 6 hr
Max. Min.
05 16:52 N 17 16.09 Fair CLR 34.4 22.8 51% 40 75.95 1011.8
05 15:52 N 15 16.09 A Few Clouds FEW050 35.6 22.8 48% 41 75.95 1012.0
05 12:52 Calm 16.09 Fair CLR 35.6 22.8 35.6 23.3 48% 41 76.05 1013.1
05 11:52 N 9 16.09 Fair CLR 34.4 22.8 51% 40 76.07 1013.6
05 10:52 NW 6 16.09 Partly Cloudy SCT120 32.8 23.3 57% 38 76.1 1013.8
05 09:52 W 9 16.09 Mostly Cloudy BKN110 31.1 21.7 57% 34 76.05 1013.3
05 08:52 Calm 16.09 Fair CLR 28.9 22.8 70% 32 76.07 1013.4
05 07:52 Calm 16.09 Fair CLR 26.7 21.7 74% 29 76.05 1013.3
05 06:52 Calm 16.09 Fair CLR 23.3 21.7 25 22.8 91% 76.02 1012.8
05 05:52 Calm 16.09 Fair CLR 23.3 21.1 88% 76 1012.5
05 04:52 W 7 16.09 Fair CLR 24.4 21.1 82% 25 76 1012.6
05 03:52 SW 7 16.09 Fair CLR 23.9 21.7 88% 24 76.02 1012.8
05 02:52 SW 6 16.09 Fair CLR 23.9 22.8 94% 23 76.02 1013.0
05 01:52 Calm 16.09 Fair CLR 24.4 22.8 91% 24 76.02 1013.0
05 00:52 Calm 16.09 Fair CLR 24.4 23.3 33.3 24.4 94% 24 76.02 1013.0
04 23:52 Calm 16.09 Fair CLR 24.4 23.3 94% 24 76.02 1013.0
04 22:52 Calm 16.09 Fair CLR 25.6 23.3 87% 27 76.05 1013.2
04 21:52 Calm 16.09 Fair CLR 26.1 23.9 88% 28 76.02 1012.9
04 20:52 Calm 16.09 Fair CLR 27.2 23.9 82% 30 76 1012.5
04 19:52 Calm 16.09 Fair CLR 29.4 24.4 75% 35 75.97 1012.2
04 18:52 Calm 16.09 Fair CLR 33.3 24.4 36.1 33.3 60% 40 75.95 1012.0
04 17:52 NW 7 16.09 Fair CLR 35 22.2 47% 40 75.95 1012.0
04 16:52 W 6 16.09 Fair CLR 35.6 21.7 44% 40 75.97 1012.1
04 15:52 N 7 16.09 Fair CLR 36.1 21.7 43% 41 76.02 1012.7
04 14:52 Vrbl 6 16.09 A Few Clouds FEW060 36.1 21.7 43% 41 76.07 1013.5
04 13:52 N 11 16.09 Fair CLR 35.6 22.8 48% 41 76.12 1014.0
04 12:52 N 15 16.09 Fair CLR 35.6 22.2 35.6 25.6 46% 40 76.15 1014.5
04 10:52 W 11 16.09 Fair CLR 33.9 21.7 49% 38 76.17 1014.9
04 08:52 SW 15 G 31 16.09 Fair CLR 29.4 21.1 61% 32 76.12 1014.3
04 07:52 SW 9 16.09 Fair CLR 27.2 21.1 69% 29 76.12 1014.1
04 06:52 SW 7 16.09 Fair CLR 25.6 21.1 28.3 24.4 76% 27 76.1 1014.0
04 05:52 Calm 16.09 Fair CLR 25 21.1 79% 26 76.07 1013.6
04 04:52 SW 7 16.09 Fair CLR 26.7 21.1 71% 28 76.05 1013.1
04 03:52 S 9 16.09 Fair CLR 26.7 21.1 71% 28 76.02 1012.6
04 02:52 S 7 16.09 Fair CLR 26.7 21.1 71% 28 76.02 1012.9
04 01:52 S 9 16.09 Fair CLR 27.2 21.1 69% 29 76.05 1013.1
04 00:52 SW 11 16.09 Fair CLR 28.3 21.1 32.8 26.1 65% 31 76.07 1013.4
03 23:52 S 9 16.09 Fair CLR 28.3 20.6 63% 30 76.05 1013.1
03 22:52 S 9 16.09 Fair CLR 27.8 20.6 65% 30 76.02 1013.0
03 21:52 S 7 16.09 Fair CLR 26.7 20 67% 28 76.05 1013.1
03 20:52 S 7 16.09 Fair CLR 28.9 18.9 55% 30 76 1012.6
03 19:52 S 11 16.09 Fair CLR 30.6 20 53% 33 75.95 1011.9
03 18:52 S 9 16.09 Fair CLR 32.8 20 37.2 32.8 47% 35 75.97 1012.0
03 17:52 SW 7 16.09 Fair CLR 35.6 19.4 39% 38 75.95 1012.0
03 16:52 SW 15 16.09 Fair CLR 36.1 18.9 36% 38 75.95 1012.0
03 15:52 SW 13 16.09 Fair CLR 36.7 19.4 36% 39 75.97 1012.3
03 14:52 W 13 16.09 A Few Clouds FEW070 36.7 19.4 36% 39 76.02 1012.7
03 13:52 SE 7 16.09 Fair CLR 35.6 20.6 41% 39 76.05 1013.3
03 12:52 W 6 16.09 Fair CLR 35 21.1 35.6 25 44% 39 76.1 1013.8
03 11:52 W 9 16.09 A Few Clouds FEW100 34.4 21.7 48% 38 76.15 1014.3
03 10:52 SW 13 16.09 Partly Cloudy FEW100 SCT120 32.8 21.7 52% 36 76.15 1014.5
03 09:52 SW 15 16.09 Partly Cloudy SCT120 31.7 21.7 55% 35 76.15 1014.5
03 08:52 SW 11 16.09 Partly Cloudy SCT120 27.8 21.1 67% 30 76.15 1014.6
03 07:52 SW 11 16.09 Fair CLR 26.7 21.1 71% 28 76.15 1014.6
03 06:52 SW 9 16.09 Fair CLR 25 20.6 27.8 24.4 77% 26 76.12 1014.4
03 05:52 SW 9 16.09 Fair CLR 25 20.6 77% 26 76.1 1014.0
03 04:52 S 7 16.09 Fair CLR 25 21.1 79% 26 76.1 1013.9
03 03:52 S 7 16.09 Fair CLR 25 21.1 79% 26 76.1 1013.9
03 02:52 S 9 16.09 Fair CLR 25 21.1 79% 26 76.1 1013.8
03 01:52 S 9 16.09 Fair CLR 26.7 21.1 71% 28 76.1 1013.9
03 00:52 S 11 16.09 Fair CLR 27.8 21.1 33.3 27.8 67% 30 76.12 1014.1
02 23:52 S 17 16.09 Fair CLR 28.9 20.6 61% 31 76.1 1013.7
02 22:52 S 15 16.09 Fair CLR 30 20.6 57% 32 76.1 1013.6
02 21:52 S 11 16.09 Fair CLR 28.9 20.6 61% 31 76.07 1013.6
02 20:52 S 11 16.09 Fair CLR 28.9 20.6 61% 31 76.05 1013.3
02 19:52 S 9 16.09 Fair CLR 30 21.1 59% 33 76.02 1013.0
02 18:52 S 9 16.09 Partly Cloudy SCT075 33.3 20.6 37.8 33.3 47% 36 76.05 1013.1
02 17:52 SW 9 16.09 Fair CLR 35.6 19.4 39% 38 76.02 1012.9
Date Time (cdt) Wind (kph) Vis. (km) Weather Sky Cond. Air Dwpt Max. Min. Relative Humidity Wind Chill (°C) Heat Index (°C) altimeter (cm) sea level (mb) 1 hr 3 hr 6 hr
6 hour
Temperature (ºC) Pressure Precipitation (cm)